This is the latest recevied weather packets stored in our database for station/object DO6MJ-1. If no packets are shown the sender has not sent any weather packets the latest 10 day(s).
| Time | Temp. | Humidity | Pressure | Rain* | Wind** | Luminosity | Snow |
|---|---|---|---|---|---|---|---|
| 1778161429 | 11.11° C | 83% | 1009.2 hPa | 0 mm | - | - | - |
| 1778160229 | 10.56° C | 87% | 1009.2 hPa | 0 mm | - | - | - |
| 1778159028 | 10° C | 85% | 1009.2 hPa | 0 mm | - | - | - |
| 1778157828 | 10° C | 86% | 1009 hPa | 0 mm | - | - | - |
| 1778156628 | 10° C | 88% | 1008.8 hPa | 0 mm | - | - | - |
| 1778155427 | 9.44° C | 88% | 1008.6 hPa | 0 mm | - | - | - |
| 1778154227 | 9.44° C | 87% | 1008.5 hPa | 0 mm | - | - | - |
| 1778153027 | 10° C | 87% | 1008.4 hPa | 0 mm | - | - | - |
| 1778151827 | 10° C | 88% | 1008.1 hPa | 0 mm | - | - | - |
| 1778150626 | 9.44° C | 89% | 1008.1 hPa | 0 mm | - | - | - |
| 1778149426 | 9.44° C | 89% | 1007.9 hPa | 0 mm | - | - | - |
| 1778148226 | 9.44° C | 90% | 1007.7 hPa | 0 mm | - | - | - |
| 1778147025 | 10.56° C | 92% | 1007.3 hPa | 0 mm | - | - | - |
| 1778145825 | 9.44° C | 94% | 1007.2 hPa | 0 mm | - | - | - |
| 1778144625 | 8.33° C | 94% | 1007.1 hPa | 0 mm | - | - | - |
| 1778143425 | 8.89° C | 95% | 1007 hPa | 0 mm | - | - | - |
| 1778142224 | 8.33° C | 95% | 1006.9 hPa | 0 mm | - | - | - |
| 1778141024 | 7.78° C | 95% | 1006.8 hPa | 0.51 mm | - | - | - |
| 1778139825 | 7.78° C | 95% | 1006.6 hPa | 0.51 mm | - | - | - |
| 1778138623 | 7.78° C | 95% | 1006.4 hPa | 0.51 mm | - | - | - |
| 1778137423 | 7.22° C | 95% | 1006.2 hPa | 0 mm | - | - | - |
| 1778136223 | 7.22° C | 96% | 1006.1 hPa | 0 mm | - | - | - |
| 1778135023 | 7.22° C | 96% | 1005.8 hPa | 0 mm | - | - | - |
| 1778133823 | 6.67° C | 96% | 1005.5 hPa | 0 mm | - | - | - |
| 1778132622 | 6.67° C | 96% | 1005.3 hPa | 0.51 mm | - | - | - |
* Rain latest hour (hover to see other rain measurements)
** Current wind speed in m/s (hover to see current wind gust speed)